Flag for Reunion (French) Weather past 2 weeks in Saint-Denis, Reunion (French)

Now
72 °F

Scattered showers. Scattered clouds.


Feels Like: 76 °F
Forecast: 68 / 79 °F
Wind: 7 mph from Southeast

Location: Saint-Denis / Gillot

Current Time: Aug 23, 2014 at 8:48:16 AM

Latest Report: Aug 23, 2014 at 8:00 AM


Visibility: N/A

Pressure: 30.01 "Hg

Humidity: 61%

Dew point: 57 °F

Location of Saint-DenisLocation

Historic Weather in Saint-Denis — Graph

°F

Saint-Denis temperature yesterday

Maximum temperature yesterday: 79 °F (at 11:00 AM)
Minimum temperature yesterday: 68 °F (at 12:00 AM)
Average temperature yesterday: 72 °F

Past Weeks' High & Low Weather Summary

 TemperatureHumidityPressure
High81 °F (Aug 8, 1:18 PM)88% (Aug 9, 1:30 AM)30.30 "Hg (Aug 9, 1:30 AM)
Low59 °F (Aug 11, 6:00 AM)39% (Aug 21, 9:30 AM)29.95 "Hg (Aug 22, 3:00 PM)
Average71 °F65%30.18 "Hg
* Reported Aug 8 7:00 AM — Aug 23 7:30 AM, Saint-Denis, Weather by CustomWeather, © 2014

Note: Actual official high and low records may vary slightly from our data, if they occured in-between our weather recording intervals... More about our weather records

Advertising

Saint-Denis weather history for previous 24 hours

 ConditionsComfort  
Time TempWeatherWind HumidityBarometerVisibility
7:30 AM
Aug 23
68 °FScattered showers. Scattered clouds.9 mph73%30.01 "HgN/A
7:07 AM66 °FPassing clouds.7 mph73%30.01 "HgN/A
6:00 AM70 °FScattered clouds.5 mph64%30.01 "HgN/A
5:30 AM70 °FLight rain. Partly cloudy.6 mph64%30.01 "HgN/A
5:00 AM72 °FPassing clouds.3 mph61%29.98 "HgN/A
4:30 AM72 °FPassing clouds.5 mph65%29.98 "HgN/A
4:00 AM72 °FOvercast.9 mph65%29.98 "HgN/A
3:30 AM72 °FOvercast.14 mph69%29.98 "HgN/A
3:00 AM72 °FOvercast.9 mph65%29.98 "HgN/A
2:30 AM72 °FMostly cloudy.12 mph65%29.98 "HgN/A
2:00 AM70 °FMostly cloudy.10 mph69%30.01 "HgN/A
1:30 AM70 °FPartly cloudy.8 mph64%30.01 "HgN/A
1:00 AM68 °FPassing clouds.6 mph69%30.01 "HgN/A
12:30 AM68 °FClear.7 mph69%30.04 "HgN/A
12:00 AM70 °FClear.10 mph69%30.04 "HgN/A
11:30 PM
Aug 22
68 °FClear.12 mph73%30.04 "HgN/A
11:00 PM68 °FPassing clouds.8 mph78%30.04 "HgN/A
10:30 PM70 °FPassing clouds.9 mph73%30.04 "HgN/A
10:00 PM68 °FPassing clouds.8 mph78%30.04 "HgN/A
8:30 PM70 °FPassing clouds.12 mph73%30.04 "HgN/A
8:00 PM70 °FPassing clouds.12 mph73%30.01 "HgN/A
7:30 PM70 °FPassing clouds.12 mph73%30.01 "HgN/A
7:00 PM72 °FPassing clouds.12 mph73%30.01 "HgN/A
6:00 PM73 °FPassing clouds.15 mph69%29.98 "HgN/A
5:30 PM75 °FPassing clouds.14 mph65%29.98 "HgN/A
5:00 PM75 °FPassing clouds.14 mph65%29.98 "HgN/A
4:30 PM77 °FPassing clouds.15 mph61%29.98 "HgN/A
4:00 PM77 °FPassing clouds.16 mph65%29.98 "HgN/A
3:30 PM77 °FPassing clouds.17 mph69%29.95 "HgN/A
3:00 PM77 °FPassing clouds.17 mph69%29.95 "HgN/A
2:30 PM79 °FPassing clouds.18 mph61%29.98 "HgN/A
2:00 PM77 °FPassing clouds.18 mph65%29.98 "HgN/A
1:34 PM79 °FPassing clouds.17 mph54%29.98 "HgN/A
1:00 PM79 °FPassing clouds.20 mph58%30.01 "HgN/A
12:30 PM79 °FScattered clouds.14 mph58%30.01 "HgN/A
12:00 PM79 °FScattered clouds.14 mph54%30.04 "HgN/A
11:30 AM77 °FPartly sunny.16 mph57%30.04 "HgN/A
11:00 AM79 °FPartly sunny.13 mph51%30.07 "HgN/A
10:30 AM75 °FScattered showers. Partly sunny.12 mph57%30.07 "HgN/A
10:00 AM72 °FPartly sunny.15 mph69%30.07 "HgN/A
9:00 AM70 °FScattered showers. Partly sunny.13 mph78%30.07 "HgN/A
8:30 AM70 °FScattered showers. Partly sunny.12 mph83%30.07 "HgN/A
8:07 AM70 °FScattered showers. Partly sunny.17 mph73%30.07 "HgN/A
Weather by CustomWeather, © 2014

See weather overviewHow to use our weather pages